TimeCST,TemperatureF,Dew PointF,Humidity,Sea Level PressureIn,VisibilityMPH,Wind Direction,Wind SpeedMPH,Gust SpeedMPH,PrecipitationIn,Events,Conditions,WindDirDegrees,DateUTC
12:54 AM,30.9,24.1,76,30.32,10.0,SSE,8.1,-,N/A,,Clear,160,2013-01-10 06:54:00
1:54 AM,30.0,24.1,79,30.31,10.0,SSE,5.8,-,N/A,,Clear,160,2013-01-10 07:54:00
2:54 AM,24.1,19.0,81,30.30,9.0,ESE,5.8,-,N/A,,Clear,120,2013-01-10 08:54:00
3:54 AM,23.0,19.0,85,30.29,8.0,SSE,3.5,-,N/A,,Clear,160,2013-01-10 09:54:00
4:54 AM,23.0,19.9,88,30.26,7.0,South,4.6,-,N/A,,Clear,180,2013-01-10 10:54:00
5:54 AM,25.0,23.0,92,30.23,6.0,South,6.9,-,N/A,,Clear,170,2013-01-10 11:54:00
6:54 AM,30.0,24.1,79,30.19,10.0,SE,9.2,-,N/A,,Clear,140,2013-01-10 12:54:00
7:54 AM,33.1,25.0,72,30.17,10.0,SE,9.2,-,N/A,,Clear,140,2013-01-10 13:54:00
8:54 AM,34.0,25.0,70,30.16,10.0,SE,6.9,-,N/A,,Clear,140,2013-01-10 14:54:00
9:54 AM,36.0,27.0,70,30.12,10.0,SE,9.2,-,N/A,,Overcast,140,2013-01-10 15:54:00
10:10 AM,37.4,26.6,65,30.08,10.0,SE,9.2,-,N/A,,Overcast,140,2013-01-10 16:10:00
10:54 AM,36.0,28.9,76,30.07,10.0,SE,4.6,-,N/A,,Overcast,140,2013-01-10 16:54:00
11:54 AM,37.0,28.9,73,29.99,10.0,SE,5.8,-,N/A,,Overcast,140,2013-01-10 17:54:00
12:54 PM,36.0,30.0,79,29.94,10.0,SE,4.6,-,0.00,,Overcast,140,2013-01-10 18:54:00
1:54 PM,36.0,32.0,86,29.92,5.0,South,3.5,-,0.01,Rain,Light Rain,170,2013-01-10 19:54:00
2:54 PM,36.0,32.0,86,29.90,10.0,SSE,6.9,-,0.00,,Overcast,150,2013-01-10 20:54:00
3:49 PM,37.4,33.8,87,29.83,5.0,SE,8.1,-,N/A,,Overcast,140,2013-01-10 21:49:00
3:54 PM,36.0,33.1,89,29.85,5.0,SE,8.1,-,N/A,,Overcast,130,2013-01-10 21:54:00
4:54 PM,36.0,32.0,86,29.85,8.0,SE,9.2,-,N/A,,Overcast,140,2013-01-10 22:54:00
5:43 PM,35.6,33.8,93,29.79,5.0,SE,9.2,-,0.00,Rain,Light Rain,140,2013-01-10 23:43:00
5:54 PM,36.0,34.0,93,29.82,4.0,SSE,8.1,-,0.01,Rain,Light Rain,160,2013-01-10 23:54:00
6:22 PM,35.6,33.8,93,29.79,3.0,SSE,5.8,-,0.00,,Overcast,150,2013-01-11 00:22:00
6:29 PM,35.6,33.8,93,29.78,2.5,SSE,5.8,-,0.00,,Overcast,150,2013-01-11 00:29:00
6:54 PM,35.1,34.0,96,29.80,2.5,SE,8.1,-,0.00,,Overcast,140,2013-01-11 00:54:00
7:22 PM,35.6,33.8,93,29.76,1.8,SE,8.1,-,N/A,,Overcast,140,2013-01-11 01:22:00
7:31 PM,35.6,33.8,93,29.75,1.8,SE,8.1,-,N/A,,Overcast,140,2013-01-11 01:31:00
7:54 PM,35.1,34.0,96,29.77,0.8,South,5.8,-,N/A,,Overcast,170,2013-01-11 01:54:00
8:54 PM,34.0,33.1,96,29.78,0.2,South,6.9,-,N/A,Fog,Fog,190,2013-01-11 02:54:00
9:54 PM,35.1,34.0,96,29.75,0.2,South,5.8,-,N/A,Fog,Fog,170,2013-01-11 03:54:00
10:54 PM,35.1,33.1,92,29.71,0.2,South,5.8,-,N/A,Fog,Fog,170,2013-01-11 04:54:00
11:54 PM,34.0,33.1,96,29.70,0.2,Calm,Calm,-,N/A,Fog,Fog,0,2013-01-11 05:54:00